EHI
0 0 0 0 0 0 0 0 0 0 0 0 0 0 0 0 0 0 0 0 0 0 0 0 0 0 0 0 0 0 0 0 0 0 0 0 0 0 0 0 0 0 0
0 0 0 0 0 0 0 0 0 0 0 0 0 0 0 0 0 0 0 0 0 0 0 0 0 0 0 0 0 0 0 0 0 0 0 0 0 0 0 0 0 0 0
2 2 2 1 0 0 0 0 0 0 0 0 0 0 0 0 0 0 0 0 0 0 0 0 0 0 0 0 0 0 0 0 0 0 0 0 0 0 0 0 0 0 0
7 6 4 1 0 0 0 0 0 0 0 0 0 0 0 0 0 0 0 0 0 0 0 0 0 0 0 0 0 0 0 0 0 0 0 0 0 0 0 0 0 0 0
12 11 7 3 1 0 0 0 0 0 0 0 0 0 0 0 0 0 0 0 0 0 0 0 0 0 0 0 0 0 0 0 0 0 0 0 0 0 0 0 0 0 0
9 9 6 3 1 0 0 0 0 0 0 0 0 0 0 0 0 0 0 0 0 0 0 0 0 0 0 0 0 0 0 0 0 0 0 0 0 0 0 0 0 0 0
3 3 2 1 0 0 0 0 0 0 0 0 0 0 0 0 0 0 0 0 0 0 0 0 0 0 0 0 0 0 0 0 0 0 0 0 0 0 0 0 0 0 0
0 0 0 0 0 0 0 0 0 0 0 0 0 0 0 0 0 0 0 0 0 0 0 0 0 0 0 0 0 0 0 0 0 0 0 0 0 0 0 0 0 0 0
0 0 0 0 0 0 0 0 0 0 0 0 0 0 0 0 0 0 0 0 0 0 0 0 0 0 0 0 0 0 0 0 0 0 0 0 0 0 0 0 0 0 0
0 0 0 0 0 0 0 0 0 0 0 0 0 0 0 0 0 0 0 0 0 0 0 0 0 0 0 0 0 0 0 0 0 0 0 0 0 0 0 0 0 0 0
0 0 0 0 0 0 0 0 0 0 0 0 0 0 0 0 0 0 0 0 0 0 0 0 0 0 0 0 0 0 0 0 0 0 0 0 0 0 0 0 0 0 0
0 0 0 0 0 0 0 0 0 0 0 0 0 0 0 0 0 0 0 0 0 0 0 0 0 0 0 0 0 0 0 0 0 0 0 0 0 0 0 0 0 0 0
0 0 0 0 0 0 0 0 0 0 0 0 0 0 0 0 0 0 0 0 0 0 0 0 0 0 0 0 0 0 0 0 0 0 0 0 0 0 0 0 0 0 0
0 0 0 0 0 0 0 0 0 0 0 0 0 0 0 0 0 0 0 0 0 0 0 0 0 0 0 0 0 0 0 0 0 0 0 0 0 0 0 0 0 0 0
0 0 0 0 0 0 0 0 0 0 0 0 0 0 0 0 0 0 0 0 0 0 0 0 0 0 0 0 0 0 0 0 0 0 0 0 0 0 0 0 0 0 0
0 0 0 0 0 0 0 0 0 0 0 0 0 0 0 0 0 0 0 0 0 0 0 0 0 0 0 0 0 0 0 0 0 0 0 0 0 0 0 0 0 0 0
0 0 0 0 0 0 0 0 0 0 0 0 0 0 0 0 0 0 0 0 0 0 0 0 0 0 0 0 0 0 0 0 0 0 0 0 0 0 0 0 0 0 0
0 0 0 0 0 0 0 0 0 0 0 0 0 0 0 0 0 0 0 0 0 0 0 0 0 0 0 0 0 0 0 0 0 0 0 0 0 0 0 0 0 0 0
0 0 0 0 0 0 0 0 0 0 0 0 0 0 0 0 0 0 0 0 0 0 0 0 0 0 0 0 0 0 0 0 0 0 0 0 0 0 0 0 0 0 0
0 0 0 0 0 0 0 0 0 0 0 0 0 0 0 0 0 0 0 0 0 0 0 0 0 0 0 0 0 0 0 0 0 0 0 0 0 0 0 0 0 0 0
0 0 0 0 0 0 0 0 0 0 0 0 0 0 0 0 0 0 0 0 0 0 0 0 0 0 0 0 0 0 0 0 0 0 0 0 0 0 0 0 0 0 0
0 0 0 0 0 0 0 0 0 0 0 0 0 0 0 0 0 0 0 0 0 0 0 0 0 0 0 0 0 0 0 0 0 0 0 0 0 0 0 0 0 0 0
0 0 0 0 0 0 0 0 0 0 0 0 0 0 0 0 0 0 0 0 0 0 0 0 0 0 0 0 0 0 0 0 0 0 0 0 0 0 0 0 0 0 0
0 0 0 0 0 0 0 0 0 0 0 0 0 0 0 0 0 0 0 0 0 0 0 0 0 0 0 0 0 0 0 0 0 0 0 0 0 0 0 0 0 0 0
0 0 0 0 0 0 0 0 0 0 0 0 0 0 0 0 0 0 0 0 0 0 0 0 0 0 0 0 0 0 0 0 0 0 0 0 0 0 0 0 0 0 0
0 0 0 0 0 0 0 0 0 0 0 0 0 0 0 0 0 0 0 0 0 0 0 0 0 0 0 0 0 0 0 0 0 0 0 0 0 0 0 0 0 0 0
Wind_Speed
5 4 3 3 4 4 4 5 5 4 4 5 4 3 3 3 2 2 2 2 3 3 3 5 6 6 6 6 6 5 4 4 3 3 2 2 6 6 6 5 5 6 6
5 4 3 3 4 4 4 5 5 5 5 5 4 4 4 4 4 3 3 2 3 3 3 4 4 4 6 5 6 7 6 5 4 3 2 2 4 5 5 5 4 6 5
5 4 4 4 4 5 5 5 5 5 5 5 4 5 5 5 4 4 3 2 2 3 3 4 4 4 4 4 5 6 6 6 4 3 2 2 1 2 3 3 3 3 5
5 4 4 4 5 6 5 5 6 5 5 5 5 5 5 5 5 4 3 3 3 3 3 3 3 4 4 4 4 5 6 6 5 4 2 2 2 2 3 3 3 4 4
5 5 4 4 4 4 5 5 6 5 6 6 6 5 5 4 5 5 5 4 4 4 3 3 4 5 6 4 3 3 5 5 5 4 3 2 2 2 3 4 5 3 4
3 3 2 3 3 3 4 5 4 5 5 4 5 5 5 5 8 11 8 5 5 5 5 5 5 6 8 9 8 7 6 4 4 4 3 3 3 4 3 4 4 3 4
9 7 5 3 3 3 1 0 2 3 3 4 5 5 6 7 10 12 14 7 6 6 6 5 5 6 9 6 9 11 10 10 7 4 4 4 4 5 5 5 6 7 7
8 8 7 7 6 6 5 4 3 1 2 3 4 5 5 7 11 12 13 8 6 6 6 6 6 6 6 8 6 6 6 7 8 7 6 7 7 6 6 7 7 7 3
7 6 6 6 5 5 5 4 3 2 2 2 2 3 5 6 8 10 9 4 4 5 4 5 5 6 10 10 7 7 6 6 9 12 12 11 11 11 8 4 4 4 5
5 4 4 5 5 5 5 4 3 3 3 3 2 2 2 3 5 7 9 3 4 3 3 3 5 6 9 10 8 7 7 6 4 4 5 6 5 4 5 5 5 5 3
3 4 4 4 4 4 5 4 4 4 4 4 4 4 4 3 4 4 5 4 4 3 2 2 3 6 7 9 10 7 8 5 3 3 2 1 1 1 1 1 3 4 4
3 4 4 5 5 5 5 5 5 5 5 5 5 5 4 5 6 6 4 2 4 3 3 3 3 4 3 4 6 6 7 6 3 3 2 1 1 1 1 1 0 1 2
3 3 3 4 4 5 5 5 5 5 4 4 4 4 4 5 6 10 8 4 1 2 2 5 4 4 5 4 6 7 6 4 3 3 2 1 1 1 1 1 1 1 1
3 1 1 2 2 4 4 4 4 4 4 4 5 5 4 4 4 5 5 4 3 1 1 1 5 6 5 5 5 4 3 3 3 3 2 1 1 1 1 1 0 0 0
2 1 0 0 0 1 2 3 3 3 4 3 3 4 4 5 6 8 5 3 1 1 2 2 2 2 3 2 2 3 2 2 2 2 2 1 1 1 1 1 1 1 1
2 1 1 1 1 1 0 1 3 3 5 6 6 5 3 5 8 7 5 4 2 2 3 2 2 2 3 2 3 2 1 1 1 1 1 1 1 2 2 2 1 2 2
3 2 1 1 1 1 1 1 1 1 2 3 5 6 6 7 8 7 6 6 6 4 4 3 3 3 3 3 2 2 1 0 1 1 1 1 1 1 1 1 1 2 2
3 2 2 1 1 1 1 0 0 0 1 2 3 5 7 8 8 7 6 5 5 5 4 4 4 4 3 3 2 2 2 2 2 1 1 1 1 1 1 1 2 2 2
4 2 1 0 1 1 1 1 2 1 1 1 3 4 7 6 8 10 7 4 4 4 4 4 4 4 3 3 3 3 3 2 2 2 2 2 1 1 2 2 3 4 3
4 5 3 1 1 1 1 2 2 2 2 2 3 3 4 4 5 5 5 4 4 4 4 4 3 4 3 3 3 3 3 3 3 2 2 2 2 2 2 3 3 3 3
4 3 3 2 2 2 2 2 2 2 2 2 2 3 3 3 4 4 4 4 4 3 3 3 3 3 3 3 3 3 3 2 2 2 2 3 3 2 2 3 3 3 3
4 3 2 2 2 2 2 2 3 3 2 2 2 3 5 4 3 4 4 4 4 4 4 4 4 4 4 4 4 3 3 3 3 4 3 3 3 3 3 3 3 3 3
5 4 3 2 2 3 3 2 3 3 2 2 2 2 3 3 3 4 4 4 4 4 4 4 5 4 4 4 4 3 3 3 4 4 4 3 3 3 3 3 4 3 3
5 5 4 3 3 3 3 3 3 3 3 2 2 2 2 3 3 3 3 3 4 4 4 4 4 5 6 4 3 3 3 4 4 4 4 3 3 3 3 3 3 3 3
5 5 4 4 4 4 3 3 3 3 3 3 2 2 2 2 2 3 3 3 4 5 5 4 4 4 5 6 5 5 7 7 5 4 3 2 3 3 3 3 3 3 3
5 5 4 4 4 4 4 4 3 3 3 3 3 3 3 2 2 2 3 3 4 4 4 3 5 5 6 5 6 8 8 7 7 7 4 3 4 4 4 3 4 4 4
Wind_Direction
187 188 178 171 163 159 166 179 180 180 178 182 190 199 202 197 183 171 176 175 194 210 212 211 218 211 206 199 184 178 182 177 222 258 228 198 175 178 175 179 190 196 199
174 155 156 151 158 169 187 195 191 191 190 191 191 192 200 205 202 197 201 193 205 221 222 216 222 214 210 199 191 191 189 181 188 226 227 195 191 189 172 177 189 196 193
162 156 168 181 186 193 204 205 201 200 200 200 198 200 203 205 208 210 209 215 221 226 221 215 214 199 203 200 198 194 190 184 171 185 213 211 190 153 152 182 191 201 204
158 160 191 213 213 209 211 212 211 206 202 204 209 210 206 203 204 206 206 214 221 225 219 214 208 200 198 193 195 189 181 175 168 167 177 197 196 152 147 177 202 215 214
163 175 203 232 242 236 227 222 220 214 212 207 211 217 210 201 206 201 201 207 212 220 220 215 213 210 201 193 183 180 179 173 163 158 161 174 185 169 195 192 210 206 223
131 172 214 243 255 253 236 221 217 223 228 217 215 215 210 214 216 207 198 202 206 214 224 227 228 233 231 223 209 195 185 174 165 154 159 187 207 213 207 198 196 185 234
53 47 35 29 23 4 355 169 225 234 236 233 226 214 213 223 227 219 210 201 206 214 219 221 232 232 230 225 227 218 208 201 191 172 189 212 222 222 212 210 203 207 218
56 52 48 47 42 32 33 27 4 323 255 239 233 222 221 231 232 231 217 204 211 219 219 220 230 244 225 210 207 212 214 211 209 213 220 230 236 236 222 220 218 223 232
47 41 38 43 41 32 23 9 357 350 333 290 255 228 225 243 240 234 211 186 213 231 235 233 230 240 244 217 197 209 219 226 225 224 227 238 245 247 235 213 200 195 226
39 38 35 38 36 23 6 354 347 346 337 334 333 299 253 257 265 242 204 182 211 237 255 265 261 253 249 220 195 196 212 224 208 200 216 231 240 265 248 213 205 201 207
37 45 34 23 21 17 6 1 359 5 14 18 22 18 17 3 344 311 215 179 201 221 243 265 282 287 261 221 193 194 206 193 173 163 148 141 105 21 349 239 209 204 206
52 52 37 23 21 24 26 22 21 26 32 22 19 16 11 9 13 9 13 201 187 194 223 241 261 262 228 186 178 183 172 147 126 123 118 109 76 16 8 23 99 175 193
61 53 45 35 32 32 39 34 27 24 27 18 17 13 359 360 4 12 11 8 222 209 238 253 236 168 127 113 126 133 128 124 128 127 135 145 147 130 99 69 49 55 71
87 77 61 56 43 36 35 33 35 23 18 16 12 1 348 346 353 352 347 344 350 348 355 76 112 112 100 101 100 96 98 127 132 135 143 145 130 124 152 170 154 76 4
124 174 253 333 59 43 44 33 26 28 17 6 353 342 341 339 335 331 319 311 302 249 130 106 104 115 110 98 91 89 89 97 103 115 128 142 176 206 229 212 196 188 209
156 221 261 293 307 296 296 23 33 21 16 16 7 356 336 340 342 353 353 339 324 161 126 121 127 123 121 122 121 106 99 118 142 153 166 185 205 222 235 221 210 220 248
164 188 224 271 304 301 272 261 290 335 342 4 12 12 9 360 5 16 27 31 38 74 88 87 90 97 96 99 103 100 93 117 164 169 197 222 230 231 230 235 238 250 263
159 177 182 227 300 314 318 352 119 167 356 339 337 345 355 4 17 31 44 50 50 52 66 74 75 74 74 74 71 67 51 40 50 43 22 353 318 259 252 255 250 247 258
158 174 180 311 10 106 112 84 63 60 51 4 345 341 353 16 38 42 48 57 68 65 60 64 66 71 69 66 62 57 53 44 36 31 15 350 330 289 261 257 255 257 254
168 178 163 118 77 103 110 94 78 69 60 40 18 352 352 32 45 37 40 49 62 64 64 67 62 62 59 54 50 49 49 43 36 29 4 344 322 290 274 270 262 258 253
165 168 154 108 101 121 130 122 117 103 87 58 17 2 41 66 63 55 52 50 52 56 59 62 58 53 49 47 47 51 52 37 25 7 348 336 331 319 302 289 282 273 274
156 154 151 143 125 116 124 130 136 129 114 85 32 31 58 65 65 62 58 54 48 48 50 57 54 45 38 36 33 31 27 14 359 344 330 321 318 316 312 303 296 290 286
151 152 150 145 130 121 112 111 124 131 124 108 85 66 62 69 73 76 73 65 57 52 48 51 52 45 39 37 34 25 9 347 329 319 316 317 324 327 325 318 315 311 308
149 153 151 146 132 125 127 124 123 129 130 123 110 100 93 89 87 86 81 72 66 60 57 55 53 47 38 25 13 4 349 330 314 308 319 330 336 335 335 335 335 332 327
140 145 148 149 145 141 136 132 130 131 133 133 129 124 115 104 99 97 91 79 75 72 66 52 37 29 23 17 6 356 351 356 1 347 336 350 357 354 352 350 346 339 333
139 140 145 147 147 148 147 146 146 146 144 144 142 139 131 119 109 105 99 88 82 76 66 48 37 30 16 2 356 358 4 14 22 25 26 30 32 21 10 7 4 360 351